#timestamp,LO_Frequency,Hit,StdDev 
1507957215.7,286047002.4,N
1507957235.6,286047001.5,N
1507957255.4,286047001.5,N
1507957275.2,286047000.3,N
1507957295.1,286047000.9,N
1507957296.0,286047000.9,N
1507957315.8,286046998.2,N
1507957335.6,286047001.1,N
1507957355.5,286047002.8,N
1507957375.3,286046999.7,N
1507957395.2,286047000.1,N
1507957415.9,286047002.3,N
1507957435.7,286047004.4,N
1507957455.6,286047001.6,N
1507957475.4,286047002.1,N
1507957495.2,286047003.8,N
1507957515.1,286047002.2,N
1507957516.0,286047002.2,N
1507957535.8,286047002.5,N
1507957555.7,286047000.0,N
1507957575.5,286047002.1,N
1507957595.3,286047000.3,N
1507957615.2,286047001.1,N
1507957635.0,286046999.5,N
1507957635.9,286046999.5,N
1507957655.8,286046998.3,N
1507957675.6,286047001.0,N
1507957725.5,286047000.2,E
1507957735.4,286047000.3,N
1507957755.2,286046998.1,P
1507957775.1,286046998.6,N
1507957776.0,286046998.6,N
1507957795.8,286047000.5,N
1507957815.7,286047001.9,N
1507957835.5,286047004.2,Y
1507957855.3,286047003.3,P
1507957875.2,286047001.3,N
1507957895.0,286047001.3,N
1507957895.9,286047001.3,N
1507957915.8,286047004.3,Y
1507957935.6,286047000.4,P
1507957955.4,286047001.2,N
1507957975.3,286047001.1,N
1507957995.1,286047000.8,N
1507958015.8,286047001.1,Y
1507958035.7,286046999.4,P
1507958055.5,286046999.3,N
1507958075.4,286047001.1,N
1507958095.2,286046998.5,N
1507958115.0,286047000.3,N
1507958115.9,286047000.3,N
1507958135.8,286047001.9,N
1507958155.6,286046999.7,N
1507958175.4,286047000.3,N
1507958195.3,286047000.0,N
1507958215.1,286047000.4,N
1507958235.9,286047001.9,N
1507958255.7,286047002.6,N
1507958275.5,286046999.7,N
1507958295.4,286047002.8,N
1507958315.2,286046999.7,N
1507958335.0,286047002.2,N
1507958335.9,286047002.2,N
1507958355.8,286047000.6,N
1507958375.6,286047000.6,N
1507958395.5,286047000.0,N
1507958415.3,286047000.9,N
1507958435.1,286046998.3,N
1507958455.9,286046999.1,N
1507958475.7,286046996.8,N
1507958495.6,286046996.9,N
1507958515.4,286046997.0,N
1507958535.2,286046997.0,N
1507958555.1,286046999.0,N
1507958556.0,286046999.0,N
1507958575.8,286047000.3,N
1507958595.7,286047000.3,N
1507958615.5,286046998.5,N
1507958635.3,286047000.7,N
1507958655.2,286047000.4,N
1507958675.9,286047001.1,N
1507958695.7,286046998.1,N
1507958715.6,286046999.7,N
1507958735.4,286046998.5,N
1507958755.3,286046998.7,N
1507958775.1,286047000.8,N
1507958776.0,286047000.8,N
1507958795.8,286046998.2,N
1507958815.7,286047001.0,N
1507958835.5,286046998.3,N
1507958855.3,286047001.0,N
1507958875.2,286047000.5,N
1507958895.0,286046999.8,N
1507958895.9,286046999.8,N
1507958915.8,286047002.3,N
1507958935.6,286046999.0,N
1507958955.4,286046999.6,N
1507958975.3,286046997.4,N
1507958995.1,286046999.5,N
1507959015.9,286047000.8,N
1507959035.7,286047000.5,N
1507959055.5,286047000.5,N
1507959075.4,286047002.5,N
1507959095.2,286047002.5,N
1507959115.0,286047001.8,N
1507959115.9,286047001.8,N
1507959135.8,286047004.4,Y
1507959155.6,286046999.8,P
1507959175.5,286047002.8,P
1507959195.3,286047000.8,N
1507959215.1,286046998.7,N
1507959235.9,286046996.5,N
1507959255.7,286046996.8,N
1507959275.6,286046998.7,N
1507959295.4,286046999.5,N
1507959315.2,286046996.6,N
1507959335.1,286046996.7,N
1507959336.0,286046996.7,N
1507959355.8,286046994.9,N
1507959375.6,286046997.2,N
1507959395.5,286046999.4,N
1507959415.3,286046998.5,N
1507959435.2,286046999.6,N
1507959455.9,286046997.3,N
1507959475.7,286046997.1,N
1507959495.6,286046999.1,N
1507959515.4,286046999.4,N
1507959535.3,286046997.2,N
1507959555.1,286046998.9,N
1507959556.0,286046998.9,N
1507959575.8,286046996.8,N
1507959595.7,286046996.6,N
1507959615.5,286046997.2,N
1507959635.3,286046994.9,Y
1507959655.2,286046999.4,P
1507959675.0,286046998.7,N
1507959675.9,286046998.7,N
1507959695.8,286046998.9,N
1507959715.6,286046999.5,N
1507959735.4,286046999.0,N
1507959755.3,286047000.3,N
1507959775.1,286047002.8,Y
1507959795.9,286047004.1,P
1507959815.7,286047001.9,N
1507959835.5,286047002.1,N
1507959855.4,286047002.8,N
1507959875.2,286047002.4,N
1507959895.0,286047000.2,N
1507959895.9,286047000.2,N
1507959915.8,286046999.9,N
1507959935.6,286047000.4,N
1507959955.5,286047000.1,N
1507959975.3,286047001.1,N
1507959995.1,286047000.1,N
1507960015.9,286046998.2,N
1507960035.7,286046996.6,N
1507960055.5,286046998.1,N
1507960075.4,286046998.9,N
1507960095.2,286046998.9,N
1507960115.1,286047000.5,N
1507960116.0,286047000.5,N
1507960135.8,286047000.8,N
1507960155.6,286046999.0,N
1507960175.5,286046999.2,N
1507960195.3,286046999.1,N
1507960215.2,286046998.8,N
1507960235.9,286046997.8,N
1507960255.7,286046997.8,N
1507960275.6,286046997.9,N
1507960295.4,286046994.9,Y
1507960315.3,286046997.5,P
1507960335.1,286046997.5,N
1507960355.8,286046996.9,N
1507960375.7,286046996.8,N
1507960395.5,286046994.9,Y
1507960415.4,286047001.0,P
1507960435.2,286047000.4,N
1507960455.0,286047000.0,N
1507960455.9,286047000.0,N
1507960475.8,286047000.4,N
1507960495.6,286047000.1,N
1507960515.5,286047002.8,N
1507960535.3,286047000.5,N
1507960555.1,286046999.3,N
1507960575.9,286046999.2,N
1507960595.7,286046996.8,N
1507960615.6,286046997.4,N
1507960635.4,286046996.7,N
1507960655.2,286046998.1,N
1507960675.1,286047000.8,N
1507960676.0,286047000.8,N
1507960695.8,286047001.2,N
1507960715.7,286046999.1,N
1507960735.5,286046999.5,N
1507960755.3,286046998.2,N
1507960775.2,286046998.4,N
1507960795.9,286047001.0,N
